Weather History for LIMU - February, 2014

Change the Weather History Date:

Monday, February 3, 2014

  Actual Average Record
Temperature  
Mean Temperature 49 °F -  
Max Temperature 50 °F 52 °F 62 °F (2000)
Min Temperature 48 °F 43 °F 28 °F (2012)
Degree Days  
Heating Degree Days 16    
Moisture  
Dew Point 42 °F    
Average Humidity 72    
Maximum Humidity 100    
Minimum Humidity 44    
Precipitation  
Precipitation 0.12 in 0.10 in - ()
Sea Level Pressure  
Sea Level Pressure 29.85 in    
Wind  
Wind Speed 11 mph ()    
Max Wind Speed 21 mph    
Max Gust Speed 36 mph    
Visibility 9.5 miles    
Events Rain    
Averages and records for this station are not official NWS values.
T = Trace of Precipitation, MM = Missing Value Source: Averaged Metar Reports

Daily Weather History Graph

Daily Weather History Graph

Search for Another Location

Airport or City:

Trip Planner

Search our weather history database for the weather conditions in past years. The results will help you decide how hot, cold, wet, or windy it might be!

Date:

Astronomy

Feb. 03, 2014 Rise Set
Actual Time 7:42 AM CET 5:40 PM CET
Civil Twilight 7:12 AM CET 6:10 PM CET
Nautical Twilight 6:37 AM CET 6:45 PM CET
Astronomical Twilight 6:03 AM CET 7:18 PM CET
Moon 9:25 AM CET (2/3) 10:24 PM CET (2/3)
Length of Visible Light 10h 58m
Length of Day
9h 57m
Waxing Crescent, 17% of the Moon is Illuminated
Feb 3
Waxing Crescent
Feb 6
First Quarter
Feb 15
Full
Feb 22
Last Quarter
Mar 1
New

Hourly Weather History & Observations

Time (CET) Temp. Dew Point Humidity Pressure Visibility Wind Dir Wind Speed Gust Speed Precip Events Conditions
12:00 AM 51 °F 36 °F 46% 29.81 in 12 mi North 13.8 mph - -   Mostly Cloudy
12:55 AM 51.8 °F 37.4 °F 58% 29.80 in - NNE 8.1 mph - N/A   Clear
1:00 AM 52 °F 37 °F 44% 29.81 in 12 mi NNE 8.1 mph - -   Mostly Cloudy
1:55 AM 51.8 °F 37.4 °F 58% 29.80 in - NNE 10.4 mph - N/A   Clear
2:00 AM 52 °F 36 °F 44% 29.82 in 12 mi NNE 10.4 mph - -   Mostly Cloudy
2:55 AM 51.8 °F 37.4 °F 58% 29.80 in 6.2 mi North 20.7 mph 32.2 mph N/A   Scattered Clouds
3:00 AM 52 °F 38 °F 48% 29.82 in 12 mi North 20.7 mph - -   Partly Cloudy
3:55 AM 50.0 °F 39.2 °F 66% 29.80 in 6.2 mi North 19.6 mph - N/A   Scattered Clouds
4:00 AM 51 °F 39 °F 53% 29.81 in 12 mi North 19.6 mph - -   Partly Cloudy
4:55 AM 51.8 °F 39.2 °F 62% 29.80 in 6.2 mi North 17.3 mph - N/A   Partly Cloudy
5:00 AM 51 °F 39 °F 52% 29.81 in 12 mi North 17.3 mph - -   Scattered Clouds
5:55 AM 51.8 °F 37.4 °F 58% 29.80 in 6.2 mi North 17.3 mph - N/A   Partly Cloudy
6:00 AM 52 °F 38 °F 48% 29.81 in 12 mi North 17.3 mph - -   Scattered Clouds
6:55 AM 50.0 °F 39.2 °F 66% 29.80 in 6.2 mi NNE 20.7 mph - N/A   Scattered Clouds
7:00 AM 51 °F 39 °F 52% 29.81 in 12 mi NNE 20.7 mph - -   Partly Cloudy
7:55 AM 50.0 °F 39.2 °F 66% 29.80 in 6.2 mi NNE 20.7 mph 35.7 mph N/A   Partly Cloudy
8:00 AM 50 °F 39 °F 55% 29.82 in 12 mi NNE 20.7 mph - -   Overcast
8:55 AM 50.0 °F 39.2 °F 66% 29.80 in 6.2 mi NNE 10.4 mph - N/A   Scattered Clouds
9:00 AM 50 °F 38 °F 54% 29.83 in 12 mi NNE 10.4 mph - -   Overcast
9:55 AM 50.0 °F 39.2 °F 66% 29.83 in 6.2 mi North 11.5 mph - N/A Rain Light Rain
10:00 AM 51 °F 39 °F 53% 29.84 in 12 mi North 11.5 mph - - Rain Light Rain
10:55 AM 50.0 °F 44.6 °F 82% 29.86 in 6.2 mi North 19.6 mph - N/A Rain Light Rain
11:00 AM 50 °F 44 °F 73% 29.87 in 12 mi North 19.6 mph - - Rain Light Rain
11:55 AM 50.0 °F 42.8 °F 76% 29.83 in 6.2 mi North 18.4 mph - N/A Rain Light Rain
12:00 PM 50 °F 44 °F 71% 29.87 in 12 mi North 18.4 mph - - Rain Light Rain
12:55 PM 50.0 °F 42.8 °F 76% 29.86 in 6.2 mi North 10.4 mph - N/A Rain Light Rain
1:00 PM 51 °F 43 °F 65% 29.87 in 12 mi North 10.4 mph - - Rain Light Rain
1:55 PM 50.0 °F 44.6 °F 82% 29.86 in 6.2 mi NW 6.9 mph - N/A   Mostly Cloudy
2:00 PM 50 °F 45 °F 78% 29.87 in 12 mi NW 6.9 mph - - Rain Light Rain
2:55 PM 50.0 °F 46.4 °F 87% 29.83 in 6.2 mi West 8.1 mph - N/A   Mostly Cloudy
3:00 PM 51 °F 47 °F 80% 29.86 in 12 mi West 8.1 mph - -   Partly Cloudy
3:55 PM 50.0 °F 48.2 °F 94% 29.86 in 6.2 mi ENE 4.6 mph - N/A Rain Light Rain
4:00 PM 51 °F 47 °F 83% 29.87 in 12 mi ENE 4.6 mph - - Rain Light Rain
4:55 PM 50.0 °F 50.0 °F 100% 29.86 in 6.2 mi North 4.6 mph - N/A Rain Light Rain
5:00 PM 50 °F 50 °F 99% 29.88 in 12 mi North 4.6 mph - - Rain Light Rain
5:55 PM 48.2 °F 48.2 °F 100% 29.86 in 6.2 mi North 5.8 mph - N/A Rain Light Rain
6:00 PM 49 °F 49 °F 98% 29.88 in 12 mi North 5.8 mph - - Rain Light Rain
6:55 PM 48.2 °F 46.4 °F 93% 29.86 in 6.2 mi West 5.8 mph - N/A   Mostly Cloudy
7:00 PM 49 °F 47 °F 91% 29.90 in 12 mi West 5.8 mph - - Rain Light Rain
7:55 PM 50.0 °F 46.4 °F 87% 29.89 in 6.2 mi NW 4.6 mph - N/A   Mostly Cloudy
8:00 PM 49 °F 46 °F 86% 29.91 in 12 mi NW 4.6 mph - -   Partly Cloudy
8:55 PM 48.2 °F 44.6 °F 87% 29.89 in - West 5.8 mph - N/A   Clear
9:00 PM 49 °F 45 °F 83% 29.92 in 12 mi West 5.8 mph - -   Overcast
9:55 PM 50.0 °F 44.6 °F 82% 29.92 in - West 4.6 mph - N/A   Clear
10:00 PM 50 °F 44 °F 74% 29.93 in 12 mi West 4.6 mph - -   Mostly Cloudy
10:55 PM 50.0 °F 44.6 °F 82% 29.92 in - West 4.6 mph - N/A   Clear
11:00 PM 50 °F 44 °F 75% 29.94 in 31 mi West 4.6 mph - -   Mostly Cloudy
11:55 PM 50.0 °F 42.8 °F 76% 29.92 in - WSW 5.8 mph - N/A   Clear